STARLINK-1757 (46339 NORAD) Tracking and Keplerian Element Data

This shows tracking and keplerian element data for the satellite.

Feedback or suggestion? Click here.




ElementValue
Catalog46339
NameSTARLINK-1757
Epoch Orbit178
Epoch Day268.91668981
Epoch Year2020
RAAN324.5022
Inclination53.0005
Eccentricity0.0001334
Argument of Perigee58.7814
Mean Anonmoly143.1127
Mean Motion15.62800811
Decay Rate-0.00060701
L11 46339U 20062Q 20268.91668981 -.00060701 00000-0 -66078-3 0 9997
L22 46339 53.0005 324.5022 0001334 58.7814 143.1127 15.62800811 1789

Live tracking and technical data element details for STARLINK-1757 (NORAD 46339). STARLINK-1757 can be tracked NOW for your location showing map with azimuth and elevation plus other details from your city location.

Track the satellite on the map from your city or location and see movement details for azimuth, elevation, latitude, longitude, range, height, and movement on the map or in text.







IsCatalogInMostPopularTable: catalog: 46339, numindb: 2
Update: records affected: 1



GetName: 46339 STARLINK-1757

Hit Count: updated at: Sat, 26 Sep 2020 13:59:27 GMT